Content
SEND FEEDBACK

Daily
Averages
Monthly
Summary
Mexico

CANCUN, QUINTANA ROO


Home > North America > Mexico > Quintana Roo
Elevation: 30 feet     Latitude: 21 09N     Longitude: 086 49W

WEATHER
 
SELECT A DAY
Number of Records: 163,654;   Date Range: 1/1/95 - 7/20/14
 
SHARE

PRINT THIS DATA

[ ← Previous Day ]
WEATHER ALMANAC - APRIL 8, 2013
[ Next Day → ]
[ °C ]   °F
Weather ElementAverageHighLow
Temperature78 °F84.2 °F (1:42 pm)69.8 °F (5:41 am)
Dewpoint69.3 °F73.4 °F (2:41 pm)60.8 °F (6:41 am)
Humidity74.8 %88 % (7:41 am)66 % (1:42 pm)
Barometer29.95 in30.01 in (10:48 am)29.90 in (3:42 am)
Wind Speed10.7 mph19.6 mph (3:43 pm)
Weather ElementAverage
Visibility7 mi
Wind DirectionESE (116.5 °)

Weather ElementTotal
Precipitation---
Cooling Degree Days12 (Base 65)
Growing Degree Days27 (Base 50)
Averaged from 23 records on April 8, 2013
WEATHER CONDITIONS BREAKOUT
WIND DIRECTION BREAKOUT
WEATHER BY HOUR - APRIL 8, 2013
[ °C ]   °F
Local TimeTemperatureDewpointHumidityBarometerVisibilityWind DirectionWind SpeedGust SpeedPrecipitationEventsConditions
1:44 AM73.4 °F64.4 °F73 %29.95 in7.0 miESE (120°)5.8 mphPartly Cloudy
2:43 AM73.4 °F62.6 °F69 %29.93 in7.0 miESE (110°)5.8 mphClear
3:42 AM73.4 °F62.6 °F69 %29.90 in7.0 miESE (110°)5.8 mphClear
4:41 AM71.6 °F62.6 °F73 %29.92 in7.0 miEast (80°)5.8 mphClear
5:41 AM69.8 °F62.6 °F78 %29.93 in7.0 miEast (100°)5.8 mphPartly Cloudy
6:41 AM69.8 °F60.8 °F73 %29.92 in7.0 miENE (60°)5.8 mphScattered Clouds
7:41 AM71.6 °F68.0 °F88 %29.96 in7.0 miESE (110°)3.5 mphScattered Clouds
8:44 AM78.8 °F68.0 °F69 %29.97 in7.0 miESE (110°)9.2 mphMostly Cloudy
9:40 AM80.6 °F69.8 °F70 %29.99 in7.0 miESE (110°)10.4 mphMostly Cloudy
10:48 AM80.6 °F69.8 °F70 %30.01 in7.0 miSE (130°)12.7 mphOvercast
11:40 AM82.4 °F71.6 °F70 %29.99 in7.0 miESE (120°)11.5 mphMostly Cloudy
12:41 PM82.4 °F71.6 °F70 %29.98 in7.0 miESE (120°)13.8 mphMostly Cloudy
1:42 PM84.2 °F71.6 °F66 %29.94 in7.0 miESE (120°)15.0 mphMostly Cloudy
2:41 PM82.4 °F73.4 °F74 %29.92 in7.0 miSE (130°)16.1 mphMostly Cloudy
3:43 PM82.4 °F71.6 °F70 %29.92 in7.0 miSE (130°)19.6 mphScattered Clouds
4:41 PM82.4 °F71.6 °F70 %29.91 in7.0 miSE (140°)19.6 mphScattered Clouds
5:42 PM80.6 °F71.6 °F74 %29.92 in7.0 miSE (130°)13.8 mphScattered Clouds
6:46 PM80.6 °F73.4 °F79 %29.93 in7.0 miSE (130°)12.7 mphScattered Clouds
7:41 PM78.8 °F73.4 °F83 %29.95 in7.0 miESE (120°)10.4 mphPartly Cloudy
8:42 PM78.8 °F73.4 °F83 %29.97 in7.0 miSE (130°)9.2 mphClear
9:44 PM78.8 °F73.4 °F83 %29.96 in7.0 miESE (120°)9.2 mphScattered Clouds
10:44 PM78.8 °F73.4 °F83 %29.98 in7.0 miSE (130°)11.5 mphPartly Cloudy
11:41 PM78.8 °F73.4 °F83 %29.98 in7.0 miESE (120°)12.7 mphPartly Cloudy
Hourly data recorded from MMUN, located miles away from Cancun, Quintana Roo







STORIES FROM OUR PARTNERS